Location: Nairn
(57.5833°N, 3.8667°W)
Time: 23:18:54
(UTC+00:00)

Vanguard 2 - Visible Passes

Search period start: 05 December 2020 00:00
Search period end: 15 December 2020 00:00
Orbit: 554 x 2937 km, 32.9° (Epoch: 05 December)

Date Brightness Start Highest point End Pass type
(mag) Time Alt. Az. Time Alt. Az. Time Alt. Az.
09 Dec 11.4 06:59:56 10° S 07:02:04 11° S 07:04:01 10° SSE visible
10 Dec 11.3 07:15:29 10° SSW 07:19:22 12° S 07:22:43 10° SSE visible
11 Dec 11.5 05:25:20 10° S 05:28:59 12° SSE 05:32:14 10° SSE visible
11 Dec 11.2 07:31:56 10° SSW 07:36:39 14° S 07:40:34 10° SSE visible
12 Dec 11.4 05:40:21 10° SSW 05:46:15 14° S 05:51:12 10° SE visible
12 Dec 11.2 07:48:50 10° SW 07:53:53 14° S 07:58:03 10° SSE visible
13 Dec 11.7 03:53:16 10° SSE 03:55:29 10° SSE 03:57:37 10° SE visible
13 Dec 11.3 05:56:20 10° SSW 06:03:32 16° S 06:09:20 10° SE visible
14 Dec 11.5 04:06:25 10° S 04:12:42 14° SSE 04:18:10 10° SE visible
14 Dec 11.2 06:12:48 10° SW 06:20:48 18° S 06:27:05 10° SE visible
